Location: Newark
(39.6172°N, 96.8533°W)
Time: 01:27:00
(UTC+00:00)

Envisat - Pass Details

Date: 29 January 2020
Orbit: 764 x 766 km, 98.1° (Epoch: 21 February)

Event Time Altitude Azimuth Distance (km) Brightness Sun altitude
Rises 01:36:05 0° 211° (SSW) 3,219 6.7 -22.0°
Reaches altitude 10° 01:39:20 10° 233° (SW) 2,298 6.3 -22.6°
Maximum altitude 01:42:17 16° 269° (W) 1,947 6.1 -23.2°
Drops below altitude 10° 01:45:16 10° 305° (NW) 2,308 6.1 -23.7°
Sets 01:48:33 0° 328° (NNW) 3,239 6.6 -24.4°
